AE7QG Weather Reports


Display with metric or nautical units.
time (UTC)temp
F
wind
direction
speed
MPH
gust
MPH
rain 1hr
in
rain 24hr
in
rain mn
in
humidity
%
barometer
mb
20260906221527 68 51 1.0 5.0 0.00 0.00 0.00 57 1007.3
20260906220026 68 240 1.0 4.0 0.00 0.00 0.00 56 1007.2
20260906214532 68 126 0.0 7.0 0.00 0.00 0.00 56 1007.2
20260906213025 69 13 2.0 6.0 0.00 0.00 0.00 56 1007.1
20260906211537 69 185 2.0 8.0 0.00 0.00 0.00 55 1007.3
20260906210023 69 28 1.0 9.0 0.00 0.00 0.00 56 1007.6
20260906204529 70 124 1.0 5.0 0.00 0.00 0.00 56 1007.7
20260906203022 69 178 1.0 5.0 0.00 0.00 0.00 56 1007.7
20260906201521 70 70 1.0 6.0 0.00 0.00 0.00 54 1007.7
20260906200033 72 99 2.0 7.0 0.00 0.00 0.00 51 1007.9
20260906194518 71 214 3.0 10.0 0.00 0.00 0.00 51 1008.0
20260906193017 72 229 2.0 5.0 0.00 0.00 0.00 51 1008.0
20260906191528 69 200 0.0 3.0 0.00 0.00 0.00 54 1008.0
20260906190014 70 206 2.0 4.0 0.00 0.00 0.00 53 1008.2
20260906184516 71 194 0.0 4.0 0.00 0.00 0.00 52 1008.1
20260906183012 71 249 1.0 9.0 0.00 0.00 0.00 53 1008.5
20260906181531 71 179 0.0 4.0 0.00 0.00 0.00 53 1008.7
20260906180018 69 186 0.0 4.0 0.00 0.00 0.00 53 1009.0
20260906174504 67 110 3.0 7.0 0.00 0.00 0.00 54 1009.3
20260906173003 68 105 2.0 5.0 0.00 0.00 0.00 54 1009.3
20260906171610 68 140 1.0 5.0 0.00 0.00 0.00 54 1009.6
20260906170108 66 76 2.0 5.0 0.00 0.00 0.00 57 1009.8
20260906164555 65 165 1.0 3.0 0.00 0.00 0.00 60 1009.8
20260906163057 63 148 0.0 6.0 0.00 0.00 0.00 61 1009.8
20260906161549 62 149 1.0 4.0 0.00 0.00 0.00 64 1010.0
20260906160045 60 142 0.0 3.0 0.00 0.00 0.00 65 1010.2
20260906154544 58 155 0.0 3.0 0.00 0.00 0.00 71 1010.4
20260906153041 57 155 1.0 2.0 0.00 0.00 0.00 72 1010.6
20260906151534 56 154 0.0 3.0 0.00 0.00 0.00 74 1010.6
20260906150034 55 267 0.0 3.0 0.00 0.00 0.00 74 1010.6
20260906144541 53 292 0.0 1.0 0.00 0.00 0.00 77 1010.5
20260906143037 51 292 0.0 0.0 0.00 0.00 0.00 81 1010.5
20260906141536 49 292 0.0 0.0 0.00 0.00 0.00 84 1010.6
20260906140034 48 292 0.0 0.0 0.00 0.00 0.00 84 1010.6
20260906134534 48 292 0.0 0.0 0.00 0.00 0.00 84 1010.5
20260906133031 48 292 0.0 0.0 0.00 0.00 0.00 84 1010.4
20260906131534 49 292 0.0 0.0 0.00 0.00 0.00 84 1010.3
20260906130027 49 292 0.0 0.0 0.00 0.00 0.00 83 1010.5
20260906124524 49 292 0.0 0.0 0.00 0.00 0.00 83 1010.3
20260906123022 50 292 0.0 0.0 0.00 0.00 0.00 81 1010.4
20260906121520 51 292 0.0 0.0 0.00 0.00 0.00 80 1010.5
20260906120017 52 292 0.0 0.0 0.00 0.00 0.00 79 1010.4
20260906114529 52 292 0.0 0.0 0.00 0.00 0.00 78 1010.5
20260906113014 53 292 0.0 0.0 0.00 0.00 0.00 78 1010.7
20260906111512 53 292 0.0 0.0 0.00 0.00 0.00 77 1010.7
20260906110012 54 292 0.0 0.0 0.00 0.00 0.00 77 1010.9
20260906104510 54 292 0.0 0.0 0.00 0.00 0.00 77 1011.0
20260906103009 54 292 0.0 1.0 0.00 0.00 0.00 77 1011.1
20260906101507 54 292 1.0 2.0 0.00 0.00 0.00 75 1011.2
20260906100011 54 292 0.0 0.0 0.00 0.00 0.00 79 1011.3
20260906094523 54 292 0.0 0.0 0.00 0.00 0.00 77 1011.3
20260906093011 54 292 0.0 0.0 0.00 0.00 0.00 77 1011.0
20260906091506 53 292 0.0 0.0 0.00 0.00 0.00 78 1011.2
20260906090005 54 292 0.0 0.0 0.00 0.00 0.00 77 1011.4
20260906084504 54 292 0.0 0.0 0.00 0.00 0.00 76 1011.5
20260906083004 54 292 0.0 0.0 0.00 0.00 0.00 76 1011.6
20260906081508 54 292 0.0 0.0 0.00 0.00 0.00 76 1011.5
20260906080006 54 292 0.0 0.0 0.00 0.00 0.00 75 1010.9
20260906074600 54 292 0.0 0.0 0.00 0.00 0.00 76 1011.2
20260906073058 54 292 0.0 0.0 0.00 0.00 0.00 75 1010.7
20260906071554 55 292 0.0 0.0 0.00 0.00 0.00 76 1010.9
20260906070052 55 292 0.0 0.0 0.00 0.00 0.00 75 1011.2
20260906064550 56 292 0.0 0.0 0.00 0.00 0.00 73 1011.5
20260906063050 55 292 0.0 0.0 0.00 0.00 0.00 74 1011.5
20260906061544 55 292 0.0 0.0 0.00 0.00 0.00 72 1011.5
20260906060042 55 292 0.0 0.0 0.00 0.00 0.00 73 1011.2
20260906054543 55 292 0.0 0.0 0.00 0.00 0.00 74 1011.5
20260906053041 55 292 0.0 0.0 0.00 0.00 0.00 73 1011.6
20260906051550 56 292 0.0 0.0 0.00 0.00 0.00 72 1011.7
20260906050040 57 292 0.0 0.0 0.00 0.00 0.00 71 1011.6
20260906044540 57 292 0.0 0.0 0.00 0.00 0.00 69 1011.6
20260906043040 58 292 0.0 0.0 0.00 0.00 0.00 67 1011.7
20260906041539 59 292 0.0 0.0 0.00 0.00 0.00 63 1011.6
20260906040038 60 292 0.0 0.0 0.00 0.00 0.00 63 1011.5
20260906034538 60 292 0.0 0.0 0.00 0.00 0.00 67 1011.5
20260906033045 60 292 0.0 0.0 0.00 0.00 0.00 65 1011.3
20260906031540 61 292 0.0 0.0 0.00 0.00 0.00 62 1011.3
20260906030037 61 292 0.0 0.0 0.00 0.00 0.00 62 1011.2
20260906024546 61 292 0.0 0.0 0.00 0.00 0.00 65 1011.0
20260906023036 61 292 0.0 0.0 0.00 0.00 0.00 65 1010.8
20260906021535 62 292 2.0 3.0 0.00 0.00 0.00 63 1010.5
20260906020034 64 292 1.0 3.0 0.00 0.00 0.00 61 1010.5
20260906014549 66 292 2.0 3.0 0.00 0.00 0.00 55 1010.4
20260906013043 69 292 0.0 2.0 0.00 0.00 0.00 47 1010.4
20260906011533 70 26 0.0 3.0 0.00 0.00 0.00 44 1010.4
20260906010032 71 146 0.0 3.0 0.00 0.00 0.00 43 1010.3
20260906004531 72 150 1.0 4.0 0.00 0.00 0.00 43 1010.1
20260906003032 73 232 0.0 4.0 0.00 0.00 0.00 41 1010.1
20260906001532 73 162 1.0 6.0 0.00 0.00 0.00 40 1010.0
20260906000030 74 135 0.0 4.0 0.00 0.00 0.00 39 1010.1
20260905234528 74 132 1.0 4.0 0.00 0.00 0.00 39 1010.2
20260905233028 74 148 0.0 6.0 0.00 0.00 0.00 39 1010.3
20260905231526 74 34 0.0 3.0 0.00 0.00 0.00 40 1010.3
20260905230025 74 340 0.0 4.0 0.00 0.00 0.00 39 1010.5
20260905224523 74 239 0.0 3.0 0.00 0.00 0.00 41 1010.7
20260905223021 73 187 2.0 6.0 0.00 0.00 0.00 40 1010.9